DW4174 Weather Reports


Display with metric or nautical units.
time (UTC)temp
F
wind
direction
speed
MPH
gust
MPH
rain 1hr
in
rain 24hr
in
rain mn
in
humidity
%
barometer
mb
20260902223424 103 246 5.0 11.0 0.00 0.00 0.00 25 1009.6
20260902221623 105 285 2.0 13.0 0.00 0.00 0.00 25 1009.9
20260902220724 103 300 3.0 4.0 0.00 0.00 0.00 26 1009.8
20260902215824 103 260 5.0 7.0 0.00 0.00 0.00 26 1010.0
20260902214923 104 288 6.0 12.0 0.00 0.00 0.00 25 1010.2
20260902214023 105 283 7.0 13.0 0.00 0.00 0.00 24 1010.2
20260902213123 105 259 6.0 14.0 0.00 0.00 0.00 24 1010.2
20260902212224 104 184 5.0 10.0 0.00 0.00 0.00 25 1010.4
20260902210423 104 267 5.0 10.0 0.00 0.00 0.00 26 1010.6
20260902205523 104 191 6.0 11.0 0.00 0.00 0.00 26 1010.9
20260902204623 103 193 4.0 12.0 0.00 0.00 0.00 27 1011.0
20260902203723 103 257 4.0 9.0 0.00 0.00 0.00 27 1011.1
20260902202823 104 254 4.0 11.0 0.00 0.00 0.00 27 1011.3
20260902201924 102 257 4.0 10.0 0.00 0.00 0.00 28 1011.5
20260902201023 103 290 4.0 10.0 0.00 0.00 0.00 27 1011.6
20260902200123 102 218 5.0 10.0 0.00 0.00 0.00 28 1011.9
20260902195223 102 178 5.0 12.0 0.00 0.00 0.00 28 1012.0
20260902194323 103 215 3.0 10.0 0.00 0.00 0.00 27 1012.1
20260902193423 101 151 3.0 10.0 0.00 0.00 0.00 30 1012.2
20260902192523 101 169 4.0 10.0 0.00 0.00 0.00 30 1012.4
20260902191623 102 243 5.0 10.0 0.00 0.00 0.00 29 1012.5
20260902185823 99 159 5.0 11.0 0.00 0.00 0.00 32 1012.8
20260902184923 100 194 5.0 11.0 0.00 0.00 0.00 30 1013.0
20260902184023 100 175 4.0 14.0 0.00 0.00 0.00 30 1013.1
20260902183123 100 206 6.0 10.0 0.00 0.00 0.00 30 1013.2
20260902182223 99 176 6.0 17.0 0.00 0.00 0.00 31 1013.2
20260902181323 99 197 5.0 11.0 0.00 0.00 0.00 30 1013.4
20260902180423 98 184 5.0 12.0 0.00 0.00 0.00 32 1013.4
20260902174623 98 188 4.0 11.0 0.00 0.00 0.00 34 1013.5
20260902173723 98 173 4.0 13.0 0.00 0.00 0.00 31 1013.6
20260902172823 98 186 3.0 15.0 0.00 0.00 0.00 31 1013.6
20260902171923 96 189 4.0 8.0 0.00 0.00 0.00 37 1013.6
20260902171023 96 205 3.0 9.0 0.00 0.00 0.00 38 1013.6
20260902170123 96 182 2.0 8.0 0.00 0.00 0.00 39 1013.5
20260902165223 95 182 3.0 7.0 0.00 0.00 0.00 41 1013.6
20260902163423 93 194 3.0 7.0 0.00 0.00 0.00 46 1013.7
20260902162523 93 174 2.0 9.0 0.00 0.00 0.00 45 1013.7
20260902160723 92 173 3.0 8.0 0.00 0.00 0.00 49 1013.7
20260902155823 91 155 4.0 9.0 0.00 0.00 0.00 49 1013.6
20260902154923 91 154 3.0 9.0 0.00 0.00 0.00 51 1013.4
20260902154023 90 160 3.0 6.0 0.00 0.00 0.00 52 1013.5
20260902153123 90 161 3.0 8.0 0.00 0.00 0.00 53 1013.5
20260902152223 89 175 2.0 6.0 0.00 0.00 0.00 55 1013.4
20260902151323 88 122 3.0 8.0 0.00 0.00 0.00 55 1013.4
20260902150423 88 128 2.0 8.0 0.00 0.00 0.00 55 1013.3
20260902145523 87 127 2.0 5.0 0.00 0.00 0.00 56 1013.3
20260902144623 87 157 1.0 7.0 0.00 0.00 0.00 57 1013.3
20260902143723 86 154 2.0 3.0 0.00 0.00 0.00 58 1013.3
20260902142823 86 149 1.0 6.0 0.00 0.00 0.00 59 1013.3
20260902141923 86 115 1.0 6.0 0.00 0.00 0.00 59 1013.3
20260902140123 85 110 0.0 3.0 0.00 0.00 0.00 61 1013.0
20260902135223 84 111 0.0 3.0 0.00 0.00 0.00 62 1012.8
20260902134323 84 111 0.0 2.0 0.00 0.00 0.00 62 1012.7
20260902133423 83 0 0.0 0.0 0.00 0.00 0.00 63 1012.6
20260902132523 83 108 1.0 3.0 0.00 0.00 0.00 63 1012.5
20260902131623 83 109 1.0 3.0 0.00 0.00 0.00 63 1012.4
20260902130723 83 110 1.0 3.0 0.00 0.00 0.00 63 1012.4
20260902124923 84 110 1.0 4.0 0.00 0.00 0.00 62 1012.2
20260902124022 84 104 2.0 4.0 0.00 0.00 0.00 61 1012.1
20260902123122 84 96 1.0 3.0 0.00 0.00 0.00 61 1011.9
20260902122223 84 95 1.0 3.0 0.00 0.00 0.00 61 1011.9
20260902121322 84 94 2.0 4.0 0.00 0.00 0.00 60 1011.9
20260902120422 84 93 2.0 4.0 0.00 0.00 0.00 60 1011.8
20260902114623 85 113 1.0 4.0 0.00 0.00 0.00 59 1011.8
20260902113722 85 108 1.0 3.0 0.00 0.00 0.00 59 1011.8
20260902111923 85 102 2.0 4.0 0.00 0.00 0.00 58 1011.7
20260902110122 85 98 1.0 4.0 0.00 0.00 0.00 58 1011.6
20260902104322 86 108 1.0 3.0 0.00 0.00 0.00 58 1011.7
20260902103422 86 111 1.0 3.0 0.00 0.00 0.00 59 1011.6
20260902102522 86 112 0.0 3.0 0.00 0.00 0.00 58 1011.7
20260902101622 86 112 0.0 1.0 0.00 0.00 0.00 58 1011.8
20260902100722 86 113 1.0 3.0 0.00 0.00 0.00 57 1011.7
20260902095822 86 118 0.0 3.0 0.00 0.00 0.00 58 1011.6
20260902094922 86 0 0.0 0.0 0.00 0.00 0.00 57 1011.6
20260902094022 86 0 0.0 0.0 0.00 0.00 0.00 57 1011.6
20260902093122 86 0 0.0 0.0 0.00 0.00 0.00 57 1011.6
20260902092222 86 0 0.0 0.0 0.00 0.00 0.00 56 1011.5
20260902091322 86 175 0.0 1.0 0.00 0.00 0.00 56 1011.7
20260902090422 87 176 0.0 1.0 0.00 0.00 0.00 54 1011.7
20260902085522 87 0 0.0 0.0 0.00 0.00 0.00 53 1011.6
20260902084622 88 176 0.0 2.0 0.00 0.00 0.00 52 1011.8
20260902083722 88 176 0.0 1.0 0.00 0.00 0.00 50 1011.7
20260902082822 88 176 0.0 1.0 0.00 0.00 0.00 50 1011.6
20260902081922 88 0 0.0 0.0 0.00 0.00 0.00 49 1011.7
20260902081022 89 176 0.0 1.0 0.00 0.00 0.00 48 1011.7
20260902075222 89 0 0.0 0.0 0.00 0.00 0.00 48 1011.6
20260902074322 89 292 1.0 2.0 0.00 0.00 0.00 48 1011.6
20260902072522 90 267 1.0 4.0 0.00 0.00 0.00 47 1011.4
20260902071622 91 177 1.0 4.0 0.00 0.00 0.00 46 1011.4
20260902070722 91 148 1.0 6.0 0.00 0.00 0.00 45 1011.2
20260902065822 91 142 1.0 4.0 0.00 0.00 0.00 45 1011.2
20260902064922 91 162 1.0 5.0 0.00 0.00 0.00 45 1011.1
20260902064022 91 164 0.0 4.0 0.00 0.00 0.00 45 1011.1
20260902062222 91 166 1.0 5.0 0.00 0.00 0.00 45 1011.1
20260902061322 91 166 1.0 4.0 0.00 0.00 0.00 45 1011.1
20260902055522 92 168 1.0 5.0 0.00 0.00 0.00 44 1011.2
20260902052822 92 174 2.0 6.0 0.00 0.00 0.00 42 1011.4
20260902051922 93 188 1.0 6.0 0.00 0.00 0.00 41 1011.4
20260902050122 91 0 0.0 0.0 0.00 0.00 0.00 41 1011.1
20260902045222 92 0 0.0 0.0 0.00 0.00 0.00 41 1011.1
20260902044322 91 0 0.0 0.0 0.00 0.00 0.00 42 1011.0
20260902043422 91 0 0.0 0.0 0.00 0.00 0.00 41 1010.9
20260902042522 91 0 0.0 0.0 0.00 0.00 0.00 41 1010.8
20260902041622 92 0 0.0 0.0 0.00 0.00 0.00 40 1010.8
20260902040722 92 0 0.0 0.0 0.00 0.00 0.00 40 1010.8
20260902035822 92 0 0.0 0.0 0.00 0.00 0.00 40 1010.7
20260902034922 92 0 0.0 0.0 0.00 0.00 0.00 39 1010.6
20260902034022 93 0 0.0 0.0 0.00 0.00 0.00 39 1010.4
20260902033122 94 0 0.0 0.0 0.00 0.00 0.00 38 1010.3
20260902032222 93 0 0.0 0.0 0.00 0.00 0.00 38 1010.1
20260902031322 94 0 0.0 0.0 0.00 0.00 0.00 38 1009.9
20260902030422 94 0 0.0 0.0 0.00 0.00 0.00 38 1009.7
20260902025522 94 0 0.0 0.0 0.00 0.00 0.00 37 1009.6
20260902024622 94 178 0.0 2.0 0.00 0.00 0.00 38 1009.5
20260902021922 95 178 1.0 2.0 0.00 0.00 0.00 37 1009.4
20260902021022 95 178 0.0 4.0 0.00 0.00 0.00 36 1009.4
20260902020122 95 178 0.0 2.0 0.00 0.00 0.00 36 1009.3
20260902015222 96 178 1.0 4.0 0.00 0.00 0.00 36 1009.1
20260902014322 96 178 0.0 4.0 0.00 0.00 0.00 36 1009.1
20260902013422 96 178 0.0 2.0 0.00 0.00 0.00 36 1009.1
20260902012522 96 178 2.0 4.0 0.00 0.00 0.00 35 1009.1
20260902010722 97 157 2.0 5.0 0.00 0.00 0.00 34 1009.3
20260902005822 98 31 1.0 6.0 0.00 0.00 0.00 35 1009.5
20260902004922 98 287 1.0 4.0 0.00 0.00 0.00 34 1009.4
20260902004022 98 214 2.0 7.0 0.00 0.00 0.00 34 1009.6
20260902003121 99 239 3.0 5.0 0.00 0.00 0.00 34 1009.6
20260902002222 98 201 3.0 7.0 0.00 0.00 0.00 34 1009.8
20260902000422 99 227 3.0 9.0 0.00 0.00 0.00 34 1009.8
20260901235522 100 232 2.0 7.0 0.00 0.00 0.00 35 1009.9
20260901234622 100 159 2.0 7.0 0.00 0.00 0.00 35 1009.8
20260901232821 99 196 2.0 10.0 0.00 0.00 0.00 35 1010.1
20260901231921 99 190 3.0 8.0 0.00 0.00 0.00 36 1010.1
20260901231021 99 178 4.0 10.0 0.00 0.00 0.00 35 1010.2